EN

Hourly Weather Tlokowo

Today, 16 May, Sunday

Time Temperature Precipitation Wind Pressure Humidity
00:00 +8°C° 0 mm 3 mps 744 mmHg 94%
01:00 +8°C° 0 mm 3 mps 744 mmHg 94%
02:00 +8°C° 0 mm 3 mps 744 mmHg 92%
03:00 +8°C° 0 mm 3 mps 743 mmHg 91%
04:00 +8°C° 0 mm 3 mps 743 mmHg 90%
05:00 +10°C° 0 mm 3 mps 743 mmHg 86%
06:00 +11°C° 0 mm 4 mps 743 mmHg 82%
07:00 +13°C° 0 mm 4 mps 743 mmHg 78%
08:00 +13°C° 0.1 mm 4 mps 743 mmHg 79%
09:00 +14°C° 0.1 mm 4 mps 743 mmHg 79%
10:00 +14°C° 0.1 mm 4 mps 743 mmHg 79%
11:00 +15°C° 0.5 mm 4 mps 743 mmHg 76%
12:00 +17°C° 0.5 mm 4 mps 743 mmHg 73%
13:00 +18°C° 0.5 mm 4 mps 742 mmHg 70%
14:00 +17°C° 0.7 mm 3 mps 742 mmHg 75%
15:00 +17°C° 0.7 mm 3 mps 742 mmHg 79%
16:00 +16°C° 0.7 mm 2 mps 742 mmHg 83%
17:00 +15°C° 0.3 mm 2 mps 742 mmHg 85%
18:00 +15°C° 0.3 mm 2 mps 742 mmHg 87%
19:00 +14°C° 0.3 mm 1 mps 741 mmHg 89%
20:00 +14°C° 0.1 mm 1 mps 741 mmHg 90%
21:00 +13°C° 0.1 mm 1 mps 741 mmHg 90%
22:00 +13°C° 0.1 mm 1 mps 742 mmHg 91%
23:00 +12°C° 0.5 mm 1 mps 742 mmHg 93%

Tomorrow, 17 May, Monday

Time Temperature Precipitation Wind Pressure Humidity
00:00 +12°C° 0.5 mm 1 mps 742 mmHg 94%
01:00 +12°C° 0.5 mm 2 mps 742 mmHg 95%
02:00 +10°C° 0.1 mm 2 mps 742 mmHg 95%
03:00 +10°C° 0.1 mm 2 mps 742 mmHg 95%
04:00 +10°C° 0.1 mm 2 mps 742 mmHg 95%
05:00 +12°C° 0 mm 2 mps 742 mmHg 90%
06:00 +13°C° 0 mm 2 mps 742 mmHg 86%
07:00 +15°C° 0 mm 2 mps 742 mmHg 81%
08:00 +16°C° 0.1 mm 2 mps 742 mmHg 74%
09:00 +17°C° 0.1 mm 2 mps 742 mmHg 66%
10:00 +18°C° 0.1 mm 2 mps 742 mmHg 58%
11:00 +19°C° 0.1 mm 2 mps 742 mmHg 58%
12:00 +20°C° 0.1 mm 1 mps 742 mmHg 57%
13:00 +20°C° 0.1 mm 1 mps 742 mmHg 57%
14:00 +20°C° 0 mm 1 mps 742 mmHg 57%
15:00 +20°C° 0 mm 1 mps 741 mmHg 58%
16:00 +20°C° 0 mm 2 mps 741 mmHg 58%
17:00 +18°C° 0.1 mm 2 mps 741 mmHg 66%
18:00 +16°C° 0.1 mm 2 mps 741 mmHg 74%
19:00 +14°C° 0.1 mm 3 mps 741 mmHg 82%
20:00 +13°C° 0 mm 3 mps 741 mmHg 86%
21:00 +12°C° 0 mm 3 mps 741 mmHg 89%
22:00 +11°C° 0 mm 3 mps 741 mmHg 93%
23:00 +10°C° 0 mm 3 mps 741 mmHg 94%

Day after tomorrow, 18 May, Tuesday

Time Temperature Precipitation Wind Pressure Humidity
00:00 +10°C° 0 mm 2 mps 741 mmHg 95%
01:00 +9°C° 0 mm 2 mps 740 mmHg 95%
02:00 +9°C° 0 mm 2 mps 740 mmHg 95%
03:00 +10°C° 0 mm 1 mps 740 mmHg 96%
04:00 +10°C° 0 mm 1 mps 740 mmHg 96%
05:00 +10°C° 0 mm 2 mps 740 mmHg 94%
06:00 +12°C° 0 mm 2 mps 740 mmHg 92%
07:00 +12°C° 0 mm 2 mps 740 mmHg 90%
08:00 +12°C° 0 mm 3 mps 740 mmHg 87%
09:00 +13°C° 0 mm 4 mps 740 mmHg 84%
10:00 +14°C° 0 mm 4 mps 740 mmHg 81%
11:00 +13°C° 0.1 mm 5 mps 740 mmHg 82%
12:00 +13°C° 0.1 mm 5 mps 740 mmHg 83%
13:00 +13°C° 0.1 mm 6 mps 741 mmHg 84%
14:00 +11°C° 0.1 mm 6 mps 741 mmHg 85%
15:00 +11°C° 0.1 mm 6 mps 741 mmHg 86%
16:00 +10°C° 0.1 mm 6 mps 742 mmHg 87%
17:00 +9°C° 0 mm 6 mps 742 mmHg 88%
18:00 +9°C° 0 mm 5 mps 742 mmHg 90%
19:00 +8°C° 0 mm 5 mps 742 mmHg 92%
20:00 +8°C° 0 mm 4 mps 743 mmHg 93%
21:00 +8°C° 0 mm 4 mps 743 mmHg 94%
22:00 +8°C° 0 mm 3 mps 743 mmHg 94%
23:00 +8°C° 0 mm 3 mps 743 mmHg 95%

19 May, Wednesday

Time Temperature Precipitation Wind Pressure Humidity
00:00 +8°C° 0 mm 3 mps 744 mmHg 96%
01:00 +7°C° 0 mm 3 mps 744 mmHg 97%
02:00 +7°C° 0 mm 3 mps 744 mmHg 97%
03:00 +7°C° 0 mm 3 mps 744 mmHg 97%
04:00 +5°C° 0 mm 3 mps 744 mmHg 97%
05:00 +7°C° 0 mm 4 mps 744 mmHg 92%
06:00 +8°C° 0 mm 5 mps 745 mmHg 86%
07:00 +10°C° 0 mm 5 mps 745 mmHg 81%
08:00 +10°C° 0 mm 5 mps 745 mmHg 78%
09:00 +12°C° 0 mm 5 mps 746 mmHg 76%
10:00 +13°C° 0 mm 6 mps 746 mmHg 73%
11:00 +13°C° 0 mm 6 mps 746 mmHg 67%
12:00 +14°C° 0 mm 6 mps 746 mmHg 62%
13:00 +14°C° 0 mm 6 mps 747 mmHg 56%
14:00 +14°C° 0 mm 6 mps 747 mmHg 57%
15:00 +13°C° 0 mm 6 mps 747 mmHg 59%
16:00 +13°C° 0 mm 5 mps 747 mmHg 60%
17:00 +11°C° 0 mm 4 mps 747 mmHg 67%
18:00 +10°C° 0 mm 3 mps 748 mmHg 74%
19:00 +8°C° 0 mm 2 mps 748 mmHg 81%
20:00 +7°C° 0 mm 2 mps 748 mmHg 84%
21:00 +7°C° 0 mm 2 mps 748 mmHg 87%
22:00 +6°C° 0 mm 2 mps 748 mmHg 91%
23:00 +5°C° 0 mm 2 mps 748 mmHg 92%

20 May, Thursday

Time Temperature Precipitation Wind Pressure Humidity
00:00 +5°C° 0 mm 2 mps 748 mmHg 93%
01:00 +4°C° 0 mm 3 mps 748 mmHg 94%
02:00 +4°C° 0 mm 3 mps 748 mmHg 94%
03:00 +4°C° 0 mm 3 mps 748 mmHg 94%
04:00 +3°C° 0 mm 3 mps 748 mmHg 94%
05:00 +5°C° 0 mm 3 mps 748 mmHg 88%
06:00 +8°C° 0 mm 3 mps 748 mmHg 81%
07:00 +10°C° 0 mm 4 mps 748 mmHg 74%
08:00 +11°C° 0 mm 4 mps 748 mmHg 70%
09:00 +13°C° 0 mm 4 mps 748 mmHg 66%
10:00 +14°C° 0 mm 4 mps 748 mmHg 62%
11:00 +13°C° 0.4 mm 4 mps 748 mmHg 67%
12:00 +13°C° 0.4 mm 4 mps 748 mmHg 72%
13:00 +13°C° 0.4 mm 4 mps 749 mmHg 77%
14:00 +12°C° 0.3 mm 4 mps 749 mmHg 75%
15:00 +12°C° 0.3 mm 4 mps 749 mmHg 73%
16:00 +12°C° 0.3 mm 5 mps 749 mmHg 71%
17:00 +11°C° 0.1 mm 4 mps 749 mmHg 75%
18:00 +10°C° 0.1 mm 2 mps 750 mmHg 79%
19:00 +10°C° 0.1 mm 1 mps 750 mmHg 82%
20:00 +9°C° 0 mm 1 mps 750 mmHg 85%
21:00 +6°C° 0 mm 2 mps 750 mmHg 88%
22:00 +5°C° 0 mm 2 mps 750 mmHg 90%
23:00 +6°C° 0 mm 2 mps 750 mmHg 86%

21 May, Friday

Time Temperature Precipitation Wind Pressure Humidity
00:00 +6°C° 0 mm 2 mps 750 mmHg 83%
01:00 +7°C° 0 mm 3 mps 750 mmHg 79%
02:00 +5°C° 0 mm 3 mps 750 mmHg 83%
03:00 +4°C° 0 mm 3 mps 750 mmHg 87%
04:00 +3°C° 0 mm 3 mps 749 mmHg 91%
05:00 +5°C° 0 mm 3 mps 749 mmHg 84%
06:00 +6°C° 0 mm 4 mps 749 mmHg 78%
07:00 +8°C° 0 mm 5 mps 749 mmHg 71%
08:00 +9°C° 0 mm 5 mps 749 mmHg 65%
09:00 +11°C° 0 mm 4 mps 749 mmHg 58%
10:00 +12°C° 0 mm 4 mps 749 mmHg 52%
11:00 +12°C° 0 mm 4 mps 748 mmHg 51%
12:00 +13°C° 0 mm 4 mps 748 mmHg 50%
13:00 +13°C° 0 mm 4 mps 748 mmHg 50%
14:00 +14°C° 0 mm 3 mps 747 mmHg 50%
15:00 +14°C° 0 mm 3 mps 747 mmHg 50%
16:00 +14°C° 0 mm 3 mps 746 mmHg 50%
17:00 +13°C° 0 mm 3 mps 746 mmHg 56%
18:00 +13°C° 0 mm 2 mps 746 mmHg 63%
19:00 +12°C° 0 mm 1 mps 745 mmHg 69%
20:00 +10°C° 0 mm 2 mps 745 mmHg 73%
21:00 +9°C° 0 mm 2 mps 745 mmHg 78%
22:00 +8°C° 0 mm 3 mps 745 mmHg 82%
23:00 +8°C° 0 mm 3 mps 745 mmHg 83%
Show more

We Need Your Consent

Meteoprog and our Service Providers may store and access personal data such as cookies, device identifiers or other similar technologies on your device and process such data to personalise content and ads, as well as provide social media features and to analyse the traffic.

  • Store and/or access information on your device

    Cookies, device identifiers or other information can be stored or accessed on your device for the purposes indicated above.

  • Personalised ads and content, ad and content measurement, audience insights, and products development

    Ads and content can be personalised based on a profile. More data can be added to better personalise ads and content. Ad and content performance can be measured. Insights about the audience who saw the ads and content can be derived. Such data can be used to develop or improve user’s experience, systems and software.

By clicking ‘I Agree’ you will allow the use of indicated cookies, device identifiers, web beacons or other similar technologies. Your settings can be changed in the browser on your device.

For certain purposes, legitimate interests may be relied on, rather than consent. You can read more about this in our Privacy and Cookie Policy.